Change the Weather History Date:

Friday, September 20, 2013

  Actual Average (KRBD) Record (KRBD)
Temperature  
Mean Temperature 72 °F -  
Max Temperature 75 °F 84 °F 96 °F (2005)
Min Temperature 69 °F 64 °F 57 °F (2002)
Cooling Degree Days 7    
Growing Degree Days 22 (Base 50)    
Moisture  
Dew Point 70 °F    
Average Humidity 92    
Maximum Humidity 100    
Minimum Humidity 83    
Precipitation  
Precipitation 4.34 in - - ()
Sea Level Pressure  
Sea Level Pressure 29.88 in    
Wind  
Wind Speed 8 mph (NNE)    
Max Wind Speed 17 mph    
Max Gust Speed 28 mph    
Visibility 6 miles    
Events Rain    
Averages and records for this station are not official NWS values.
T = Trace of Precipitation, MM = Missing Value Source: NWS Daily Summary

Daily Weather History Graph

Daily Weather History Graph

Search for Another Location

Airport or City:

Trip Planner

Search our weather history database for the weather conditions in past years. The results will help you decide how hot, cold, wet, or windy it might be!

Date:

Astronomy

Sep. 20, 2013 Rise Set
Actual Time 7:15 AM CDT 7:27 PM CDT
Civil Twilight 6:50 AM CDT 7:51 PM CDT
Nautical Twilight 6:22 AM CDT 8:20 PM CDT
Astronomical Twilight 5:53 AM CDT 8:49 PM CDT
Moon 8:10 PM CDT (9/20) 8:24 AM CDT (9/20)
Length of Visible Light 13h 01m
Length of Day
12h 11m
Full, 98% of the Moon is Illuminated
Sep 20
Full
Sep 26
Last Quarter
Oct 4
New
Oct 11
First Quarter
Oct 18
Full

Hourly Weather History & Observations

Time (CDT) Temp. Dew Point Humidity Pressure Visibility Wind Dir Wind Speed Gust Speed Precip Events Conditions
12:53 AM 73.0 °F 71.1 °F 93% 29.90 in 8.0 mi ENE 4.6 mph - 0.11 in Rain Rain
1:35 AM 73.4 °F 71.6 °F 94% 29.91 in 9.0 mi NE 6.9 mph - 0.05 in Rain Light Rain
1:46 AM 73.4 °F 71.6 °F 94% 29.91 in 10.0 mi NE 4.6 mph - 0.06 in Rain Light Rain
1:53 AM 73.0 °F 72.0 °F 96% 29.88 in 10.0 mi ENE 5.8 mph - 0.06 in Rain Light Rain
2:20 AM 73.4 °F 73.4 °F 100% 29.91 in 8.0 mi East 6.9 mph - 0.03 in Rain Rain
2:53 AM 73.9 °F 73.0 °F 97% 29.87 in 6.0 mi East 6.9 mph - 0.10 in Rain Rain
3:03 AM 73.4 °F 73.4 °F 100% 29.89 in 7.0 mi East 8.1 mph - 0.02 in Rain Rain
3:31 AM 73.4 °F 71.6 °F 94% 29.89 in 6.0 mi East 5.8 mph - 0.07 in Rain Rain
3:40 AM 73.4 °F 71.6 °F 94% 29.89 in 5.0 mi ENE 3.5 mph - 0.10 in Rain Rain
3:51 AM 73.4 °F 71.6 °F 94% 29.89 in 3.0 mi NE 5.8 mph - 0.18 in Rain Heavy Rain
3:53 AM 73.0 °F 72.0 °F 96% 29.86 in 3.0 mi ENE 5.8 mph - 0.20 in Rain Heavy Rain
4:04 AM 73.4 °F 71.6 °F 94% 29.88 in 2.5 mi ENE 4.6 mph - 0.12 in Rain Heavy Rain
4:22 AM 73.4 °F 71.6 °F 94% 29.89 in 2.0 mi East 8.1 mph - 0.40 in Rain Heavy Rain
4:31 AM 73.4 °F 71.6 °F 94% 29.89 in 1.2 mi NNE 4.6 mph - 0.66 in Rain Heavy Rain
4:53 AM 72.0 °F 72.0 °F 100% 29.84 in 3.0 mi NNE 6.9 mph - 1.08 in Rain Rain
5:00 AM 73.4 °F 71.6 °F 94% 29.87 in 7.0 mi ENE 6.9 mph - 0.02 in Rain Rain
5:45 AM 73.4 °F 71.6 °F 94% 29.87 in 4.0 mi Calm Calm - 0.12 in Rain Heavy Rain
5:53 AM 73.0 °F 72.0 °F 96% 29.85 in 1.8 mi Calm Calm - 0.20 in Rain Heavy Rain
6:04 AM 73.4 °F 71.6 °F 94% 29.88 in 1.0 mi NNE 3.5 mph - 0.46 in Rain Heavy Rain
6:07 AM 71.6 °F 71.6 °F 100% 29.88 in 0.8 mi North 4.6 mph - 0.70 in Rain Heavy Rain
6:22 AM 73.4 °F 71.6 °F 94% 29.87 in 0.8 mi ENE 6.9 mph - 1.29 in Rain Heavy Rain
6:29 AM 71.6 °F 71.6 °F 100% 29.87 in 0.8 mi ENE 8.1 mph - 1.72 in Rain Heavy Rain
6:40 AM 71.6 °F 69.8 °F 94% 29.87 in 1.2 mi NE 5.8 mph - 2.06 in Rain Heavy Rain
6:53 AM 72.0 °F 71.1 °F 97% 29.84 in 1.8 mi NE 5.8 mph - 2.31 in Rain Heavy Rain
6:58 AM 71.6 °F 71.6 °F 100% 29.87 in 3.0 mi NE 6.9 mph - 0.01 in Rain Rain
7:11 AM 71.6 °F 71.6 °F 100% 29.86 in 2.0 mi NNE 6.9 mph - 0.15 in Rain Heavy Rain
7:20 AM 71.6 °F 71.6 °F 100% 29.87 in 9.0 mi West 3.5 mph - 0.15 in Rain Light Rain
7:31 AM 71.6 °F 71.6 °F 100% 29.86 in 10.0 mi NNW 4.6 mph - 0.15 in Rain Light Rain
7:40 AM 71.6 °F 71.6 °F 100% 29.86 in 10.0 mi NNW 9.2 mph - 0.16 in Rain Light Rain
7:53 AM 73.0 °F 72.0 °F 96% 29.83 in 10.0 mi North 11.5 mph - 0.16 in Rain Light Rain
8:53 AM 73.0 °F 71.1 °F 93% 29.85 in 10.0 mi North 10.4 mph - 0.00 in   Overcast
9:17 AM 73.4 °F 71.6 °F 94% 29.87 in 2.5 mi North 11.5 mph - 0.00 in Rain Light Rain
9:25 AM 73.4 °F 71.6 °F 94% 29.87 in 1.8 mi NNE 6.9 mph - 0.00 in Rain Light Rain
9:32 AM 73.4 °F 71.6 °F 94% 29.87 in 2.0 mi North 10.4 mph - 0.00 in Rain Light Rain
9:53 AM 73.0 °F 72.0 °F 96% 29.85 in 3.0 mi North 15.0 mph - 0.01 in Rain Light Rain
10:01 AM 73.4 °F 71.6 °F 94% 29.88 in 2.5 mi North 13.8 mph 20.7 mph 0.00 in Rain Light Rain
10:10 AM 73.4 °F 71.6 °F 94% 29.88 in 3.0 mi North 16.1 mph - 0.01 in Rain Light Rain
10:25 AM 73.4 °F 71.6 °F 94% 29.89 in 2.5 mi North 16.1 mph 27.6 mph 0.01 in   Overcast
10:37 AM 71.6 °F 69.8 °F 94% 29.89 in 3.0 mi NNE 15.0 mph 25.3 mph 0.02 in Rain Light Rain
10:53 AM 72.0 °F 70.0 °F 93% 29.88 in 5.0 mi NNE 13.8 mph 24.2 mph 0.03 in Rain Light Rain
11:53 AM 73.0 °F 70.0 °F 90% 29.87 in 10.0 mi NNE 16.1 mph 23.0 mph 0.02 in   Overcast
12:24 PM 73.4 °F 69.8 °F 88% 29.89 in 2.5 mi North 15.0 mph 23.0 mph 0.01 in Rain Light Rain
12:35 PM 71.6 °F 69.8 °F 94% 29.90 in 3.0 mi NNE 10.4 mph 18.4 mph 0.02 in Rain Light Rain
12:46 PM 71.6 °F 71.6 °F 100% 29.90 in 4.0 mi NNE 12.7 mph 17.3 mph 0.03 in Rain Light Rain
12:53 PM 72.0 °F 70.0 °F 93% 29.88 in 5.0 mi NNE 13.8 mph 19.6 mph 0.03 in Rain Light Rain
1:13 PM 73.4 °F 69.8 °F 88% 29.89 in 5.0 mi NNE 12.7 mph - 0.01 in Rain Light Rain
1:34 PM 73.4 °F 71.6 °F 94% 29.88 in 9.0 mi North 16.1 mph 19.6 mph 0.02 in Rain Light Rain
1:53 PM 73.0 °F 70.0 °F 90% 29.86 in 7.0 mi NNE 11.5 mph 23.0 mph 0.02 in Rain Light Rain
2:29 PM 73.4 °F 71.6 °F 94% 29.87 in 10.0 mi NE 9.2 mph - 0.00 in   Overcast
2:46 PM 75.2 °F 71.6 °F 89% 29.87 in 10.0 mi North 9.2 mph - 0.00 in   Overcast
2:53 PM 75.0 °F 71.1 °F 87% 29.84 in 10.0 mi North 9.2 mph - 0.00 in Rain Light Rain
3:09 PM 73.4 °F 69.8 °F 88% 29.86 in 10.0 mi North 10.4 mph - 0.00 in Rain Light Rain
3:18 PM 75.2 °F 71.6 °F 89% 29.87 in 10.0 mi North 13.8 mph - 0.00 in   Overcast
3:37 PM 75.2 °F 69.8 °F 83% 29.85 in 10.0 mi North 15.0 mph - 0.00 in   Mostly Cloudy
3:53 PM 73.9 °F 70.0 °F 87% 29.84 in 10.0 mi North 16.1 mph - 0.00 in   Mostly Cloudy
4:35 PM 73.4 °F 69.8 °F 88% 29.89 in 10.0 mi NNW 12.7 mph - 0.00 in Rain Light Rain
4:53 PM 73.0 °F 68.0 °F 84% 29.87 in 10.0 mi North 11.5 mph - 0.01 in Rain Light Rain
5:01 PM 73.4 °F 68.0 °F 83% 29.90 in 10.0 mi North 12.7 mph - 0.00 in Rain Light Rain
5:53 PM 73.0 °F 68.0 °F 84% 29.86 in 10.0 mi North 11.5 mph - 0.00 in   Scattered Clouds
6:53 PM 73.0 °F 68.0 °F 84% 29.86 in 10.0 mi North 10.4 mph - 0.00 in Rain Light Rain
7:53 PM 72.0 °F 69.1 °F 91% 29.86 in 10.0 mi North 10.4 mph - 0.00 in   Mostly Cloudy
8:01 PM 71.6 °F 69.8 °F 94% 29.88 in 10.0 mi North 10.4 mph - N/A   Mostly Cloudy
8:11 PM 71.6 °F 69.8 °F 94% 29.89 in 10.0 mi NNW 11.5 mph - N/A   Overcast
8:38 PM 71.6 °F 69.8 °F 94% 29.89 in 10.0 mi North 13.8 mph - N/A   Overcast
8:53 PM 73.0 °F 68.0 °F 84% 29.86 in 10.0 mi North 12.7 mph - N/A   Overcast
9:43 PM 71.6 °F 68.0 °F 88% 29.90 in 10.0 mi NNW 12.7 mph - N/A   Mostly Cloudy
9:53 PM 72.0 °F 68.0 °F 87% 29.88 in 10.0 mi NNW 16.1 mph - N/A   Overcast
10:31 PM 71.6 °F 66.2 °F 83% 29.92 in 10.0 mi NNW 17.3 mph - N/A   Overcast
10:53 PM 72.0 °F 66.9 °F 84% 29.90 in 10.0 mi North 16.1 mph - N/A   Mostly Cloudy
11:12 PM 71.6 °F 66.2 °F 83% 29.92 in 10.0 mi NNW 15.0 mph - N/A   Mostly Cloudy
11:42 PM 69.8 °F 64.4 °F 83% 29.93 in 10.0 mi North 15.0 mph - N/A   Scattered Clouds
11:53 PM 70.0 °F 64.9 °F 84% 29.91 in 10.0 mi North 12.7 mph - N/A   Partly Cloudy